F1ZFG-13 Weather Reports


time (UTC)temp
C
wind
direction
speed
KPH
gust
KPH
rain 1hr
cm
rain 24hr
cm
rain mn
cm
humidity
%
barometer
mb
20260507195033 12 352 6.4 0.0 0.00 0.00 0.00 74 1013.5
20260507185446 14 3 8.0 0.0 0.00 0.00 0.00 69 1013.1
20260507180039 14 3 8.0 0.0 0.00 0.00 0.00 69 1013.1
20260507170908 15 9 11.3 0.0 0.00 0.00 0.00 60 1012.7
20260507161340 16 13 11.3 0.0 0.00 0.00 0.00 57 1012.6
20260507151621 16 1 11.3 0.0 0.00 0.00 0.00 55 1012.7
20260507142519 16 2 8.0 0.0 0.00 0.00 0.00 56 1013.1
20260507132958 16 355 8.0 0.0 0.00 0.00 0.00 58 1013.8
20260507123953 16 352 4.8 0.0 0.00 0.00 0.00 57 1013.8
20260507123818 16 352 4.8 0.0 0.00 0.00 0.00 57 1013.8
20260507113933 15 6 4.8 0.0 0.00 0.00 0.00 62 1014.5
20260507105109 13 359 6.4 0.0 0.00 0.00 0.00 68 1015.0
20260507095923 12 351 6.4 0.0 0.00 0.00 0.00 75 1015.1
20260507090133 12 351 6.4 0.0 0.00 0.00 0.00 75 1015.1
20260507081218 11 352 4.8 0.0 0.00 0.00 0.00 82 1015.2
20260507071553 9 338 4.8 0.0 0.00 0.00 0.00 91 1015.3
20260507061938 7 327 4.8 0.0 0.00 0.00 0.00 95 1014.9
20260507052439 6 303 3.2 0.0 0.00 0.00 0.00 98 1014.3
20260507042536 6 295 3.2 0.0 0.00 0.00 0.00 99 1014.0
20260507033353 6 297 3.2 0.0 0.00 0.00 0.00 99 1013.7
20260507024454 6 303 3.2 0.0 0.00 0.00 0.00 99 1013.6
20260507015050 6 285 1.6 0.0 0.00 0.00 0.00 99 1013.8
20260507005143 7 331 3.2 0.0 0.00 0.00 0.00 96 1013.1
20260506235254 7 302 3.2 0.0 0.00 0.00 0.00 95 1013.1
20260506230014 7 302 3.2 0.0 0.00 0.00 0.00 95 1013.1
20260506220714 8 292 3.2 0.0 0.00 0.00 0.00 93 1012.6
20260506211230 9 296 3.2 0.0 0.00 0.00 0.00 89 1012.4
20260506201408 10 244 3.2 0.0 0.00 0.00 0.00 85 1012.0